TimeCST,TemperatureF,Dew PointF,Humidity,Sea Level PressureIn,VisibilityMPH,Wind Direction,Wind SpeedMPH,Gust SpeedMPH,PrecipitationIn,Events,Conditions,WindDirDegrees,DateUTC
12:53 AM,27.0,21.0,78,30.19,10.0,Calm,Calm,-,N/A,,Clear,0,2013-02-19 06:53:00
1:53 AM,27.0,19.9,75,30.19,10.0,Calm,Calm,-,N/A,,Clear,0,2013-02-19 07:53:00
2:53 AM,23.0,19.9,88,30.21,10.0,Calm,Calm,-,N/A,,Clear,0,2013-02-19 08:53:00
3:53 AM,21.0,19.0,92,30.22,10.0,Calm,Calm,-,N/A,,Clear,0,2013-02-19 09:53:00
4:53 AM,21.0,19.0,92,30.24,10.0,Calm,Calm,-,N/A,,Clear,0,2013-02-19 10:53:00
5:53 AM,19.9,18.0,92,30.26,10.0,Calm,Calm,-,N/A,,Clear,0,2013-02-19 11:53:00
6:53 AM,19.9,18.0,92,30.27,10.0,Calm,Calm,-,N/A,,Clear,0,2013-02-19 12:53:00
7:53 AM,23.0,21.0,92,30.30,10.0,Calm,Calm,-,N/A,,Clear,0,2013-02-19 13:53:00
8:53 AM,35.1,25.0,67,30.33,10.0,Variable,4.6,-,N/A,,Clear,0,2013-02-19 14:53:00
9:53 AM,37.0,21.0,52,30.37,10.0,Variable,4.6,-,N/A,,Clear,0,2013-02-19 15:53:00
10:53 AM,41.0,21.0,45,30.38,10.0,Variable,4.6,-,N/A,,Clear,0,2013-02-19 16:53:00
12:53 PM,46.0,19.0,34,30.36,10.0,Variable,3.5,-,N/A,,Clear,0,2013-02-19 18:53:00
1:53 PM,48.0,19.0,32,30.32,10.0,North,8.1,17.3,N/A,,Clear,350,2013-02-19 19:53:00
2:53 PM,48.0,19.0,32,30.30,10.0,Calm,Calm,-,N/A,,Clear,0,2013-02-19 20:53:00
3:53 PM,48.0,18.0,30,30.29,10.0,North,4.6,-,N/A,,Clear,350,2013-02-19 21:53:00
4:53 PM,46.9,18.0,32,30.27,10.0,East,5.8,-,N/A,,Clear,80,2013-02-19 22:53:00
6:53 PM,33.1,21.0,61,30.28,10.0,Calm,Calm,-,N/A,,Clear,0,2013-02-20 00:53:00
7:53 PM,30.0,21.0,69,30.28,10.0,Calm,Calm,-,N/A,,Clear,0,2013-02-20 01:53:00
8:53 PM,28.0,21.0,75,30.29,10.0,NNW,3.5,-,N/A,,Clear,340,2013-02-20 02:53:00
9:53 PM,28.9,21.0,72,30.30,10.0,Calm,Calm,-,N/A,,Clear,0,2013-02-20 03:53:00
10:53 PM,30.0,21.0,69,30.30,10.0,Calm,Calm,-,N/A,,Clear,0,2013-02-20 04:53:00
11:53 PM,28.9,21.0,72,30.32,10.0,Calm,Calm,-,N/A,,Clear,0,2013-02-20 05:53:00